Romeoville, IL

8:28 PM CDT on March 30, 2017 (GMT -0500)
Lewis University

Weather History for KLOT - February, 2012

Change the Weather History Date:

Thursday, February 16, 2012

  Actual Average Record
Temperature  
Mean Temperature 38 °F 28 °F  
Max Temperature 47 °F 36 °F 53 °F (2011)
Min Temperature 29 °F 20 °F -8 °F (2007)
Degree Days  
Heating Degree Days 27 37  
Month to date heating degree days 544 629  
Since 1 July heating degree days 4310  
Cooling Degree Days 0 0  
Month to date cooling degree days 0 0  
Year to date cooling degree days 0 0  
Moisture  
Dew Point 34 °F    
Average Humidity 85    
Maximum Humidity 100    
Minimum Humidity 55    
Precipitation  
Precipitation 0.13 in 0.06 in 0.72 in (2006)
Month to date precipitation 0.94 0.90  
Year to date precipitation 2.76 2.83  
Snow  
Snow 0.00 in 0.20 in 4.00 in (1997)
Month to date snowfall 1.9 3.9  
Since 1 July snowfall 18.2 24.9  
Snow Depth 0.00 in    
Sea Level Pressure  
Sea Level Pressure 30.03 in    
Wind  
Wind Speed 7 mph (WNW)    
Max Wind Speed 17 mph    
Max Gust Speed 24 mph    
Visibility 5 miles    
Events Rain    
T = Trace of Precipitation, MM = Missing Value Source: NWS Daily Summary

Daily Weather History Graph

Daily Weather History Graph

Search for Another Location

Airport or City:

Trip Planner

Search our weather history database for the weather conditions in past years. The results will help you decide how hot, cold, wet, or windy it might be!

Date:

Astronomy

Feb. 16, 2012 Rise Set
Actual Time 6:46 AM CST 5:26 PM CST
Civil Twilight 6:18 AM CST 5:54 PM CST
Nautical Twilight 5:46 AM CST 6:27 PM CST
Astronomical Twilight 5:13 AM CST 6:59 PM CST
Moon 2:45 AM CST (2/16) 12:15 PM CST (2/16)
Length of Visible Light 11h 36m
Length of Day
10h 39m
Waning Crescent, 28% of the Moon is Illuminated
Feb 16
Waning Crescent
Feb 21
New
Feb 29
First Quarter
Mar 8
Full
Mar 14
Last Quarter

Hourly Weather History & Observations

Time (CST) Temp. Windchill Dew Point Humidity Pressure Visibility Wind Dir Wind Speed Gust Speed Precip Events Conditions
12:15 AM 37.4 °F 33.8 °F 37.4 °F 100% 29.96 in 1.5 mi SSW 4.6 mph - N/A Rain Light Rain
12:35 AM 36.9 °F 33.1 °F 36.9 °F 100% 29.95 in 1.2 mi South 4.6 mph - 0.01 in Rain Light Rain
12:55 AM 36.9 °F 33.1 °F 36.9 °F 100% 29.96 in 1.0 mi SSW 4.6 mph - 0.03 in Rain Rain
1:15 AM 36.5 °F - 36.5 °F 100% 29.96 in 0.5 mi Calm Calm - 0.01 in Rain Light Rain
1:35 AM 36.7 °F - 36.7 °F 100% 29.96 in 0.5 mi Calm Calm - 0.03 in Rain Rain
1:55 AM 36.5 °F - 36.5 °F 100% 29.96 in 0.5 mi Calm Calm - 0.05 in Rain Light Rain
2:15 AM 36.9 °F 33.1 °F 36.9 °F 100% 29.96 in 0.5 mi West 4.6 mph - 0.01 in Rain Rain
2:35 AM 36.7 °F 32.9 °F 36.7 °F 100% 29.95 in 1.0 mi West 4.6 mph - 0.01 in   Light Drizzle
2:55 AM 36.9 °F 34.3 °F 36.9 °F 100% 29.95 in 1.2 mi West 3.5 mph - 0.01 in   Light Drizzle
3:15 AM 36.5 °F 33.9 °F 36.5 °F 100% 29.94 in 0.5 mi NW 3.5 mph - 0.01 in Rain Light Rain
3:35 AM 36.0 °F 32.1 °F 36.0 °F 100% 29.95 in 0.8 mi WNW 4.6 mph - 0.01 in Rain Light Rain
3:55 AM 36.1 °F 31.4 °F 36.1 °F 100% 29.95 in 1.5 mi NW 5.8 mph - 0.01 in   Overcast
4:15 AM 36.5 °F 31.0 °F 36.5 °F 100% 29.95 in 0.8 mi NW 6.9 mph - N/A   Overcast
4:35 AM 36.5 °F 31.0 °F 36.5 °F 100% 29.95 in 1.2 mi NNW 6.9 mph - N/A   Overcast
4:55 AM 36.5 °F 31.8 °F 36.5 °F 100% 29.96 in 2.5 mi NNW 5.8 mph - N/A   Overcast
5:15 AM 36.7 °F 31.2 °F 36.7 °F 100% 29.96 in 4.0 mi NW 6.9 mph - N/A   Overcast
5:35 AM 36.5 °F 31.0 °F 36.5 °F 100% 29.98 in 3.0 mi NNW 6.9 mph - N/A   Overcast
5:55 AM 36.5 °F 28.7 °F 36.5 °F 100% 29.97 in 4.0 mi North 11.5 mph - N/A   Overcast
6:15 AM 35.1 °F 31.0 °F 34.7 °F 99% 29.97 in 3.0 mi NNW 4.6 mph - N/A   Mostly Cloudy
6:35 AM 34.0 °F 29.8 °F 34.0 °F 100% 29.98 in 3.0 mi WNW 4.6 mph - N/A   Clear
6:55 AM 34.0 °F 28.8 °F 34.0 °F 100% 29.99 in 1.5 mi West 5.8 mph - N/A   Mostly Cloudy
7:15 AM 34.3 °F 29.2 °F 34.3 °F 100% 29.99 in 1.5 mi West 5.8 mph - N/A   Overcast
7:35 AM 34.0 °F 28.0 °F 34.0 °F 100% 30.01 in 1.2 mi West 6.9 mph - N/A   Mostly Cloudy
7:55 AM 34.0 °F 27.2 °F 34.0 °F 100% 30.02 in 1.5 mi West 8.1 mph - N/A   Mostly Cloudy
8:15 AM 34.2 °F 26.8 °F 34.2 °F 100% 30.03 in 1.2 mi WNW 9.2 mph - N/A   Overcast
8:35 AM 35.1 °F 27.4 °F 35.1 °F 100% 30.04 in 1.2 mi WNW 10.4 mph - N/A   Overcast
8:55 AM 35.6 °F 28.0 °F 35.2 °F 99% 30.04 in 1.8 mi WNW 10.4 mph - N/A   Overcast
9:15 AM 36.0 °F 28.5 °F 35.1 °F 97% 30.05 in 2.0 mi WNW 10.4 mph - N/A   Overcast
9:35 AM 36.9 °F 29.6 °F 35.6 °F 95% 30.06 in 2.5 mi WNW 10.4 mph - N/A   Overcast
9:55 AM 38.5 °F 32.1 °F 36.0 °F 91% 30.07 in 3.0 mi NW 9.2 mph - N/A   Scattered Clouds
10:15 AM 40.3 °F 33.4 °F 36.1 °F 85% 30.06 in 5.0 mi NW 11.5 mph - N/A   Clear
10:35 AM 41.9 °F 35.9 °F 36.5 °F 81% 30.06 in 5.0 mi NW 10.4 mph - N/A   Haze
10:55 AM 43.0 °F 35.1 °F 36.7 °F 78% 30.07 in 5.0 mi NW 17.3 mph 21.9 mph N/A   Haze
11:15 AM 43.3 °F 36.8 °F 36.9 °F 78% 30.07 in 5.0 mi NW 12.7 mph 19.6 mph N/A   Haze
11:35 AM 43.9 °F 36.5 °F 36.9 °F 76% 30.06 in 7.0 mi NW 16.1 mph 20.7 mph N/A   Scattered Clouds
11:55 AM 44.2 °F 37.0 °F 37.2 °F 76% 30.06 in 7.0 mi WNW 16.1 mph 20.7 mph N/A   Scattered Clouds
12:15 PM 44.1 °F 37.1 °F 36.5 °F 75% 30.07 in 7.0 mi WNW 15.0 mph 20.7 mph N/A   Scattered Clouds
12:35 PM 44.1 °F 36.8 °F 35.8 °F 73% 30.07 in 10.0 mi WNW 16.1 mph 21.9 mph N/A   Mostly Cloudy
12:55 PM 43.7 °F 36.6 °F 35.1 °F 72% 30.06 in 10.0 mi NW 15.0 mph - N/A   Mostly Cloudy
1:15 PM 43.9 °F 36.5 °F 34.2 °F 69% 30.06 in 10.0 mi NW 16.1 mph 23.0 mph N/A   Mostly Cloudy
1:35 PM 44.8 °F 37.7 °F 35.4 °F 70% 30.06 in 10.0 mi NW 16.1 mph 24.2 mph N/A   Mostly Cloudy
1:55 PM 45.3 °F 38.4 °F 33.8 °F 64% 30.06 in 10.0 mi NW 16.1 mph - N/A   Mostly Cloudy
2:15 PM 44.6 °F 37.4 °F 33.8 °F 66% 30.07 in 10.0 mi NW 16.1 mph 21.9 mph N/A   Mostly Cloudy
2:35 PM 43.7 °F 36.0 °F 32.0 °F 63% 30.07 in 10.0 mi WNW 17.3 mph - N/A   Scattered Clouds
2:55 PM 43.5 °F 35.8 °F 30.6 °F 60% 30.07 in 10.0 mi NW 17.3 mph - N/A   Clear
3:15 PM 43.9 °F 36.2 °F 31.3 °F 61% 30.07 in 10.0 mi WNW 17.3 mph - N/A   Clear
3:35 PM 44.2 °F 37.0 °F 30.7 °F 59% 30.08 in 10.0 mi WNW 16.1 mph 20.7 mph N/A   Clear
3:55 PM 43.7 °F 36.6 °F 28.6 °F 55% 30.09 in 10.0 mi WNW 15.0 mph 21.9 mph N/A   Clear
4:15 PM 43.0 °F 36.8 °F 28.4 °F 56% 30.09 in 10.0 mi WNW 11.5 mph 21.9 mph N/A   Clear
4:35 PM 42.3 °F 35.5 °F 28.6 °F 58% 30.09 in 10.0 mi WNW 12.7 mph - N/A   Clear
4:55 PM 41.2 °F 35.5 °F 28.6 °F 61% 30.10 in 10.0 mi WNW 9.2 mph - N/A   Clear
5:15 PM 39.4 °F 32.7 °F 28.4 °F 65% 30.10 in 10.0 mi WNW 10.4 mph - N/A   Clear
5:35 PM 37.2 °F 31.2 °F 27.5 °F 68% 30.11 in 10.0 mi West 8.1 mph - N/A   Clear
5:55 PM 37.4 °F 30.8 °F 28.4 °F 70% 30.11 in 10.0 mi West 9.2 mph - N/A   Clear
6:15 PM 36.9 °F 30.1 °F 29.3 °F 74% 30.11 in 10.0 mi West 9.2 mph - N/A   Clear
6:35 PM 35.8 °F 29.4 °F 29.3 °F 77% 30.11 in 10.0 mi West 8.1 mph - N/A   Clear
6:55 PM 35.1 °F 29.3 °F 28.9 °F 78% 30.11 in 10.0 mi WSW 6.9 mph - N/A   Clear
7:15 PM 36.0 °F 32.1 °F 28.0 °F 73% 30.11 in 10.0 mi WSW 4.6 mph - N/A   Clear
7:35 PM 35.6 °F 29.9 °F 28.4 °F 75% 30.11 in 10.0 mi WSW 6.9 mph - N/A   Clear
7:55 PM 35.6 °F 29.2 °F 28.4 °F 75% 30.10 in 10.0 mi WSW 8.1 mph - N/A   Scattered Clouds
8:15 PM 35.6 °F 28.6 °F 28.4 °F 75% 30.11 in 10.0 mi WSW 9.2 mph - N/A   Scattered Clouds
8:35 PM 35.6 °F 28.6 °F 28.4 °F 75% 30.11 in 10.0 mi WSW 9.2 mph - N/A   Clear
8:55 PM 35.8 °F 27.8 °F 28.2 °F 74% 30.11 in 10.0 mi WSW 11.5 mph - N/A   Clear
9:15 PM 35.2 °F 26.6 °F 28.4 °F 76% 30.12 in 10.0 mi West 12.7 mph - N/A   Scattered Clouds
9:35 PM 35.1 °F 26.9 °F 28.2 °F 76% 30.12 in 10.0 mi West 11.5 mph - N/A   Scattered Clouds
9:55 PM 34.3 °F 25.9 °F 28.4 °F 79% 30.12 in 10.0 mi West 11.5 mph - N/A   Clear
10:15 PM 33.1 °F 25.5 °F 28.4 °F 83% 30.13 in 10.0 mi West 9.2 mph - N/A   Clear
10:35 PM 32.4 °F 25.3 °F 28.4 °F 85% 30.12 in 10.0 mi West 8.1 mph - N/A   Clear
10:55 PM 32.0 °F 25.6 °F 28.2 °F 86% 30.12 in 10.0 mi West 6.9 mph - N/A   Clear
11:15 PM 31.8 °F 26.2 °F 28.0 °F 86% 30.12 in 10.0 mi WNW 5.8 mph - N/A   Clear
11:35 PM 31.1 °F 25.4 °F 27.5 °F 87% 30.12 in 10.0 mi WNW 5.8 mph - N/A   Clear
11:55 PM 31.5 °F 25.8 °F 27.3 °F 85% 30.12 in 10.0 mi West 5.8 mph - N/A   Clear